owner,sensor,date,latitude,longitude,relative_humidity,qcFlag 
DISL,ioos:station:DISL:BSCA:1,2016-05-01T00:00:00Z,30.3288,-87.8293,88.9,1111122 
DISL,ioos:station:DISL:BSCA:1,2016-05-01T00:30:00Z,30.3288,-87.8293,89.2,1111122 
DISL,ioos:station:DISL:BSCA:1,2016-05-01T01:00:00Z,30.3288,-87.8293,89.3,1111122 
DISL,ioos:station:DISL:BSCA:1,2016-05-01T01:30:00Z,30.3288,-87.8293,90.3,1111122 
DISL,ioos:station:DISL:BSCA:1,2016-05-01T02:00:00Z,30.3288,-87.8293,91.0,1111122 
DISL,ioos:station:DISL:BSCA:1,2016-05-01T02:30:00Z,30.3288,-87.8293,92.6,1111122 
DISL,ioos:station:DISL:BSCA:1,2016-05-01T03:00:00Z,30.3288,-87.8293,89.6,1111122 
DISL,ioos:station:DISL:BSCA:1,2016-05-01T03:30:00Z,30.3288,-87.8293,87.1,1111122 
DISL,ioos:station:DISL:BSCA:1,2016-05-01T04:00:00Z,30.3288,-87.8293,85.2,1111122 
DISL,ioos:station:DISL:BSCA:1,2016-05-01T04:30:00Z,30.3288,-87.8293,86.1,1111122 
DISL,ioos:station:DISL:BSCA:1,2016-05-01T05:00:00Z,30.3288,-87.8293,90.6,1111122 
DISL,ioos:station:DISL:BSCA:1,2016-05-01T05:30:00Z,30.3288,-87.8293,91.2,1111122 
DISL,ioos:station:DISL:BSCA:1,2016-05-01T06:00:00Z,30.3288,-87.8293,92.5,1111122 
DISL,ioos:station:DISL:BSCA:1,2016-05-01T06:30:00Z,30.3288,-87.8293,93.6,1111122 
DISL,ioos:station:DISL:BSCA:1,2016-05-01T07:00:00Z,30.3288,-87.8293,94.0,1111122 
DISL,ioos:station:DISL:BSCA:1,2016-05-01T07:30:00Z,30.3288,-87.8293,93.8,1111122 
DISL,ioos:station:DISL:BSCA:1,2016-05-01T08:00:00Z,30.3288,-87.8293,92.9,1111122 
DISL,ioos:station:DISL:BSCA:1,2016-05-01T08:30:00Z,30.3288,-87.8293,92.8,1111122 
DISL,ioos:station:DISL:BSCA:1,2016-05-01T09:00:00Z,30.3288,-87.8293,92.9,1111122 
DISL,ioos:station:DISL:BSCA:1,2016-05-01T09:30:00Z,30.3288,-87.8293,93.6,1111122 
DISL,ioos:station:DISL:BSCA:1,2016-05-01T10:00:00Z,30.3288,-87.8293,94.0,1111122 
DISL,ioos:station:DISL:BSCA:1,2016-05-01T10:30:00Z,30.3288,-87.8293,93.8,1111122 
DISL,ioos:station:DISL:BSCA:1,2016-05-01T11:00:00Z,30.3288,-87.8293,93.4,1111122 
DISL,ioos:station:DISL:BSCA:1,2016-05-01T11:30:00Z,30.3288,-87.8293,93.9,1111122 
DISL,ioos:station:DISL:BSCA:1,2016-05-01T12:00:00Z,30.3288,-87.8293,93.7,1111122 
DISL,ioos:station:DISL:BSCA:1,2016-05-01T12:30:00Z,30.3288,-87.8293,93.0,1111122 
DISL,ioos:station:DISL:BSCA:1,2016-05-01T13:00:00Z,30.3288,-87.8293,91.6,1111122 
DISL,ioos:station:DISL:BSCA:1,2016-05-01T13:30:00Z,30.3288,-87.8293,89.9,1111122 
DISL,ioos:station:DISL:BSCA:1,2016-05-01T14:00:00Z,30.3288,-87.8293,90.2,1111122 
DISL,ioos:station:DISL:BSCA:1,2016-05-01T14:30:00Z,30.3288,-87.8293,89.0,1111122 
DISL,ioos:station:DISL:BSCA:1,2016-05-01T15:00:00Z,30.3288,-87.8293,88.2,1111122 
DISL,ioos:station:DISL:BSCA:1,2016-05-01T15:30:00Z,30.3288,-87.8293,87.2,1111122 
DISL,ioos:station:DISL:BSCA:1,2016-05-01T16:00:00Z,30.3288,-87.8293,86.1,1111122 
DISL,ioos:station:DISL:BSCA:1,2016-05-01T16:30:00Z,30.3288,-87.8293,86.2,1111122 
DISL,ioos:station:DISL:BSCA:1,2016-05-01T17:00:00Z,30.3288,-87.8293,86.2,1111122 
DISL,ioos:station:DISL:BSCA:1,2016-05-01T17:30:00Z,30.3288,-87.8293,85.5,1111122 
DISL,ioos:station:DISL:BSCA:1,2016-05-01T18:00:00Z,30.3288,-87.8293,85.9,1111122 
DISL,ioos:station:DISL:BSCA:1,2016-05-01T18:30:00Z,30.3288,-87.8293,86.4,1111122 
DISL,ioos:station:DISL:BSCA:1,2016-05-01T19:00:00Z,30.3288,-87.8293,85.1,1111122 
DISL,ioos:station:DISL:BSCA:1,2016-05-01T19:30:00Z,30.3288,-87.8293,84.5,1111122 
DISL,ioos:station:DISL:BSCA:1,2016-05-01T20:00:00Z,30.3288,-87.8293,84.4,1111122 
DISL,ioos:station:DISL:BSCA:1,2016-05-01T20:30:00Z,30.3288,-87.8293,83.3,1111122 
DISL,ioos:station:DISL:BSCA:1,2016-05-01T21:00:00Z,30.3288,-87.8293,83.8,1111122 
DISL,ioos:station:DISL:BSCA:1,2016-05-01T21:30:00Z,30.3288,-87.8293,84.3,1111122 
DISL,ioos:station:DISL:BSCA:1,2016-05-01T22:00:00Z,30.3288,-87.8293,84.5,1111122 
DISL,ioos:station:DISL:BSCA:1,2016-05-01T22:30:00Z,30.3288,-87.8293,84.1,1111122 
DISL,ioos:station:DISL:BSCA:1,2016-05-01T23:00:00Z,30.3288,-87.8293,85.4,1111122 
DISL,ioos:station:DISL:BSCA:1,2016-05-01T23:30:00Z,30.3288,-87.8293,87.2,1111122 
DISL,ioos:station:DISL:BSCA:1,2016-05-02T00:00:00Z,30.3288,-87.8293,88.9,1111122 
DISL,ioos:station:DISL:BSCA:1,2016-05-02T00:30:00Z,30.3288,-87.8293,89.6,1111122 
DISL,ioos:station:DISL:BSCA:1,2016-05-02T01:00:00Z,30.3288,-87.8293,87.9,1111122 
DISL,ioos:station:DISL:BSCA:1,2016-05-02T01:30:00Z,30.3288,-87.8293,85.8,1111122 
DISL,ioos:station:DISL:BSCA:1,2016-05-02T02:00:00Z,30.3288,-87.8293,87.0,1111122 
DISL,ioos:station:DISL:BSCA:1,2016-05-02T02:30:00Z,30.3288,-87.8293,86.7,1111122 
DISL,ioos:station:DISL:BSCA:1,2016-05-02T03:00:00Z,30.3288,-87.8293,88.8,1111122 
DISL,ioos:station:DISL:BSCA:1,2016-05-02T03:30:00Z,30.3288,-87.8293,88.1,1111122 
DISL,ioos:station:DISL:BSCA:1,2016-05-02T04:00:00Z,30.3288,-87.8293,88.4,1111122 
DISL,ioos:station:DISL:BSCA:1,2016-05-02T04:30:00Z,30.3288,-87.8293,91.1,1111122 
DISL,ioos:station:DISL:BSCA:1,2016-05-02T05:00:00Z,30.3288,-87.8293,91.2,1111122 
DISL,ioos:station:DISL:BSCA:1,2016-05-02T05:30:00Z,30.3288,-87.8293,88.7,1111122 
DISL,ioos:station:DISL:BSCA:1,2016-05-02T06:00:00Z,30.3288,-87.8293,88.7,1111122 
DISL,ioos:station:DISL:BSCA:1,2016-05-02T06:30:00Z,30.3288,-87.8293,89.0,1111122 
DISL,ioos:station:DISL:BSCA:1,2016-05-02T07:00:00Z,30.3288,-87.8293,86.1,1111122 
DISL,ioos:station:DISL:BSCA:1,2016-05-02T07:30:00Z,30.3288,-87.8293,86.2,1111122 
DISL,ioos:station:DISL:BSCA:1,2016-05-02T08:00:00Z,30.3288,-87.8293,89.4,1111122 
DISL,ioos:station:DISL:BSCA:1,2016-05-02T08:30:00Z,30.3288,-87.8293,90.5,1111122 
DISL,ioos:station:DISL:BSCA:1,2016-05-02T09:00:00Z,30.3288,-87.8293,90.3,1111122 
DISL,ioos:station:DISL:BSCA:1,2016-05-02T09:30:00Z,30.3288,-87.8293,91.3,1111122 
DISL,ioos:station:DISL:BSCA:1,2016-05-02T10:00:00Z,30.3288,-87.8293,89.4,1111122 
DISL,ioos:station:DISL:BSCA:1,2016-05-02T10:30:00Z,30.3288,-87.8293,90.4,1111122 
DISL,ioos:station:DISL:BSCA:1,2016-05-02T11:00:00Z,30.3288,-87.8293,90.5,1111122 
DISL,ioos:station:DISL:BSCA:1,2016-05-02T11:30:00Z,30.3288,-87.8293,90.5,1111122 
DISL,ioos:station:DISL:BSCA:1,2016-05-02T12:00:00Z,30.3288,-87.8293,89.2,1111122 
DISL,ioos:station:DISL:BSCA:1,2016-05-02T12:30:00Z,30.3288,-87.8293,89.3,1111122 
DISL,ioos:station:DISL:BSCA:1,2016-05-02T13:00:00Z,30.3288,-87.8293,88.8,1111122 
DISL,ioos:station:DISL:BSCA:1,2016-05-02T13:30:00Z,30.3288,-87.8293,89.5,1111122 
DISL,ioos:station:DISL:BSCA:1,2016-05-02T14:00:00Z,30.3288,-87.8293,89.1,1111122 
DISL,ioos:station:DISL:BSCA:1,2016-05-02T14:30:00Z,30.3288,-87.8293,88.9,1111122 
DISL,ioos:station:DISL:BSCA:1,2016-05-02T15:00:00Z,30.3288,-87.8293,86.6,1111122 
DISL,ioos:station:DISL:BSCA:1,2016-05-02T15:30:00Z,30.3288,-87.8293,86.3,1111122 
DISL,ioos:station:DISL:BSCA:1,2016-05-02T16:00:00Z,30.3288,-87.8293,86.5,1111122 
DISL,ioos:station:DISL:BSCA:1,2016-05-02T16:30:00Z,30.3288,-87.8293,87.0,1111122 
DISL,ioos:station:DISL:BSCA:1,2016-05-02T17:00:00Z,30.3288,-87.8293,84.3,1111122 
DISL,ioos:station:DISL:BSCA:1,2016-05-02T17:30:00Z,30.3288,-87.8293,85.5,1111122 
DISL,ioos:station:DISL:BSCA:1,2016-05-02T18:00:00Z,30.3288,-87.8293,83.9,1111122 
DISL,ioos:station:DISL:BSCA:1,2016-05-02T18:30:00Z,30.3288,-87.8293,85.4,1111122 
DISL,ioos:station:DISL:BSCA:1,2016-05-02T19:00:00Z,30.3288,-87.8293,84.9,1111122 
DISL,ioos:station:DISL:BSCA:1,2016-05-02T19:30:00Z,30.3288,-87.8293,85.3,1111122 
DISL,ioos:station:DISL:BSCA:1,2016-05-02T20:00:00Z,30.3288,-87.8293,85.5,1111122 
DISL,ioos:station:DISL:BSCA:1,2016-05-02T20:30:00Z,30.3288,-87.8293,85.0,1111122 
DISL,ioos:station:DISL:BSCA:1,2016-05-02T21:00:00Z,30.3288,-87.8293,85.0,1111122 
DISL,ioos:station:DISL:BSCA:1,2016-05-02T21:30:00Z,30.3288,-87.8293,85.0,1111122 
DISL,ioos:station:DISL:BSCA:1,2016-05-02T22:00:00Z,30.3288,-87.8293,87.4,1111122 
DISL,ioos:station:DISL:BSCA:1,2016-05-02T22:30:00Z,30.3288,-87.8293,87.2,1111122 
DISL,ioos:station:DISL:BSCA:1,2016-05-02T23:00:00Z,30.3288,-87.8293,87.8,1111122 
DISL,ioos:station:DISL:BSCA:1,2016-05-02T23:30:00Z,30.3288,-87.8293,88.4,1111122 
DISL,ioos:station:DISL:BSCA:1,2016-05-03T00:00:00Z,30.3288,-87.8293,88.0,1111122 
DISL,ioos:station:DISL:BSCA:1,2016-05-03T00:30:00Z,30.3288,-87.8293,87.2,1111122 
DISL,ioos:station:DISL:BSCA:1,2016-05-03T01:00:00Z,30.3288,-87.8293,84.6,1111122 
DISL,ioos:station:DISL:BSCA:1,2016-05-03T01:30:00Z,30.3288,-87.8293,84.5,1111122 
DISL,ioos:station:DISL:BSCA:1,2016-05-03T02:00:00Z,30.3288,-87.8293,85.2,1111122 
DISL,ioos:station:DISL:BSCA:1,2016-05-03T02:30:00Z,30.3288,-87.8293,85.5,1111122 
DISL,ioos:station:DISL:BSCA:1,2016-05-03T03:00:00Z,30.3288,-87.8293,82.6,1111122 
DISL,ioos:station:DISL:BSCA:1,2016-05-03T03:30:00Z,30.3288,-87.8293,77.7,1111122 
DISL,ioos:station:DISL:BSCA:1,2016-05-03T04:00:00Z,30.3288,-87.8293,82.1,1111122 
DISL,ioos:station:DISL:BSCA:1,2016-05-03T04:30:00Z,30.3288,-87.8293,85.5,1111122 
DISL,ioos:station:DISL:BSCA:1,2016-05-03T05:00:00Z,30.3288,-87.8293,85.3,1111122 
DISL,ioos:station:DISL:BSCA:1,2016-05-03T05:30:00Z,30.3288,-87.8293,85.6,1111122 
DISL,ioos:station:DISL:BSCA:1,2016-05-03T06:00:00Z,30.3288,-87.8293,87.2,1111122 
DISL,ioos:station:DISL:BSCA:1,2016-05-03T06:30:00Z,30.3288,-87.8293,89.3,1111122 
DISL,ioos:station:DISL:BSCA:1,2016-05-03T07:00:00Z,30.3288,-87.8293,91.0,1111122 
DISL,ioos:station:DISL:BSCA:1,2016-05-03T07:30:00Z,30.3288,-87.8293,93.3,1111122 
DISL,ioos:station:DISL:BSCA:1,2016-05-03T08:00:00Z,30.3288,-87.8293,90.9,1111122 
DISL,ioos:station:DISL:BSCA:1,2016-05-03T08:30:00Z,30.3288,-87.8293,90.0,1111122 
DISL,ioos:station:DISL:BSCA:1,2016-05-03T09:00:00Z,30.3288,-87.8293,90.2,1111122 
DISL,ioos:station:DISL:BSCA:1,2016-05-03T09:30:00Z,30.3288,-87.8293,89.6,1111122 
DISL,ioos:station:DISL:BSCA:1,2016-05-03T10:00:00Z,30.3288,-87.8293,90.4,1111122 
DISL,ioos:station:DISL:BSCA:1,2016-05-03T10:30:00Z,30.3288,-87.8293,93.6,1111122 
DISL,ioos:station:DISL:BSCA:1,2016-05-03T11:00:00Z,30.3288,-87.8293,93.9,1111122 
DISL,ioos:station:DISL:BSCA:1,2016-05-03T11:30:00Z,30.3288,-87.8293,94.5,1111122 
DISL,ioos:station:DISL:BSCA:1,2016-05-03T12:00:00Z,30.3288,-87.8293,94.7,1111122 
DISL,ioos:station:DISL:BSCA:1,2016-05-03T12:30:00Z,30.3288,-87.8293,96.2,1111122 
DISL,ioos:station:DISL:BSCA:1,2016-05-03T13:00:00Z,30.3288,-87.8293,95.9,1111122 
DISL,ioos:station:DISL:BSCA:1,2016-05-03T13:30:00Z,30.3288,-87.8293,94.8,1111122 
DISL,ioos:station:DISL:BSCA:1,2016-05-03T14:00:00Z,30.3288,-87.8293,93.8,1111122 
DISL,ioos:station:DISL:BSCA:1,2016-05-03T14:30:00Z,30.3288,-87.8293,93.2,1111122 
DISL,ioos:station:DISL:BSCA:1,2016-05-03T15:00:00Z,30.3288,-87.8293,89.9,1111122 
DISL,ioos:station:DISL:BSCA:1,2016-05-03T15:30:00Z,30.3288,-87.8293,90.7,1111122 
DISL,ioos:station:DISL:BSCA:1,2016-05-03T16:00:00Z,30.3288,-87.8293,88.4,1111122 
DISL,ioos:station:DISL:BSCA:1,2016-05-03T16:30:00Z,30.3288,-87.8293,87.6,1111122 
DISL,ioos:station:DISL:BSCA:1,2016-05-03T17:00:00Z,30.3288,-87.8293,86.1,1111122 
DISL,ioos:station:DISL:BSCA:1,2016-05-03T17:30:00Z,30.3288,-87.8293,86.3,1111122 
DISL,ioos:station:DISL:BSCA:1,2016-05-03T18:00:00Z,30.3288,-87.8293,81.0,1111122 
DISL,ioos:station:DISL:BSCA:1,2016-05-03T18:30:00Z,30.3288,-87.8293,84.3,1111122 
DISL,ioos:station:DISL:BSCA:1,2016-05-03T19:00:00Z,30.3288,-87.8293,86.0,1111122 
DISL,ioos:station:DISL:BSCA:1,2016-05-03T19:30:00Z,30.3288,-87.8293,85.2,1111122 
DISL,ioos:station:DISL:BSCA:1,2016-05-03T20:00:00Z,30.3288,-87.8293,84.8,1111122 
DISL,ioos:station:DISL:BSCA:1,2016-05-03T20:30:00Z,30.3288,-87.8293,75.24,1111122 
DISL,ioos:station:DISL:BSCA:1,2016-05-03T21:00:00Z,30.3288,-87.8293,72.39,1111122 
DISL,ioos:station:DISL:BSCA:1,2016-05-03T21:30:00Z,30.3288,-87.8293,75.14,1111122 
DISL,ioos:station:DISL:BSCA:1,2016-05-03T22:00:00Z,30.3288,-87.8293,74.83,1111122 
DISL,ioos:station:DISL:BSCA:1,2016-05-03T22:30:00Z,30.3288,-87.8293,80.3,1111122 
DISL,ioos:station:DISL:BSCA:1,2016-05-03T23:00:00Z,30.3288,-87.8293,87.7,1111122 
DISL,ioos:station:DISL:BSCA:1,2016-05-03T23:30:00Z,30.3288,-87.8293,89.2,1111122 
DISL,ioos:station:DISL:BSCA:1,2016-05-04T00:00:00Z,30.3288,-87.8293,88.6,1111122 
DISL,ioos:station:DISL:BSCA:1,2016-05-04T00:30:00Z,30.3288,-87.8293,91.2,1111122 
DISL,ioos:station:DISL:BSCA:1,2016-05-04T01:00:00Z,30.3288,-87.8293,88.7,1111122 
DISL,ioos:station:DISL:BSCA:1,2016-05-04T01:30:00Z,30.3288,-87.8293,86.2,1111122 
DISL,ioos:station:DISL:BSCA:1,2016-05-04T02:00:00Z,30.3288,-87.8293,86.1,1111122 
DISL,ioos:station:DISL:BSCA:1,2016-05-04T02:30:00Z,30.3288,-87.8293,82.5,1111122 
DISL,ioos:station:DISL:BSCA:1,2016-05-04T03:00:00Z,30.3288,-87.8293,82.4,1111122 
DISL,ioos:station:DISL:BSCA:1,2016-05-04T03:30:00Z,30.3288,-87.8293,81.3,1111122 
DISL,ioos:station:DISL:BSCA:1,2016-05-04T04:00:00Z,30.3288,-87.8293,84.7,1111122 
DISL,ioos:station:DISL:BSCA:1,2016-05-04T04:30:00Z,30.3288,-87.8293,84.4,1111122 
DISL,ioos:station:DISL:BSCA:1,2016-05-04T05:00:00Z,30.3288,-87.8293,86.9,1111122 
DISL,ioos:station:DISL:BSCA:1,2016-05-04T05:30:00Z,30.3288,-87.8293,85.4,1111122 
DISL,ioos:station:DISL:BSCA:1,2016-05-04T06:00:00Z,30.3288,-87.8293,83.8,1111122 
DISL,ioos:station:DISL:BSCA:1,2016-05-04T06:30:00Z,30.3288,-87.8293,81.4,1111122 
DISL,ioos:station:DISL:BSCA:1,2016-05-04T07:00:00Z,30.3288,-87.8293,79.5,1111122 
DISL,ioos:station:DISL:BSCA:1,2016-05-04T07:30:00Z,30.3288,-87.8293,80.1,1111122 
DISL,ioos:station:DISL:BSCA:1,2016-05-04T08:00:00Z,30.3288,-87.8293,82.9,1111122 
DISL,ioos:station:DISL:BSCA:1,2016-05-04T08:30:00Z,30.3288,-87.8293,82.6,1111122 
DISL,ioos:station:DISL:BSCA:1,2016-05-04T09:00:00Z,30.3288,-87.8293,80.8,1111122 
DISL,ioos:station:DISL:BSCA:1,2016-05-04T09:30:00Z,30.3288,-87.8293,78.76,1111122 
DISL,ioos:station:DISL:BSCA:1,2016-05-04T10:00:00Z,30.3288,-87.8293,79.51,1111122 
DISL,ioos:station:DISL:BSCA:1,2016-05-04T10:30:00Z,30.3288,-87.8293,77.0,1111122 
DISL,ioos:station:DISL:BSCA:1,2016-05-04T11:00:00Z,30.3288,-87.8293,79.45,1111122 
DISL,ioos:station:DISL:BSCA:1,2016-05-04T11:30:00Z,30.3288,-87.8293,79.38,1111122 
DISL,ioos:station:DISL:BSCA:1,2016-05-04T12:00:00Z,30.3288,-87.8293,80.1,1111122 
DISL,ioos:station:DISL:BSCA:1,2016-05-04T12:30:00Z,30.3288,-87.8293,77.62,1111122 
DISL,ioos:station:DISL:BSCA:1,2016-05-04T13:00:00Z,30.3288,-87.8293,76.63,1111122 
DISL,ioos:station:DISL:BSCA:1,2016-05-04T13:30:00Z,30.3288,-87.8293,73.99,1111122 
DISL,ioos:station:DISL:BSCA:1,2016-05-04T14:00:00Z,30.3288,-87.8293,74.52,1111122 
DISL,ioos:station:DISL:BSCA:1,2016-05-04T14:30:00Z,30.3288,-87.8293,72.92,1111122 
DISL,ioos:station:DISL:BSCA:1,2016-05-04T15:00:00Z,30.3288,-87.8293,67.13,1111122 
DISL,ioos:station:DISL:BSCA:1,2016-05-04T15:30:00Z,30.3288,-87.8293,62.39,1111122 
DISL,ioos:station:DISL:BSCA:1,2016-05-04T16:00:00Z,30.3288,-87.8293,60.32,1111122 
DISL,ioos:station:DISL:BSCA:1,2016-05-04T16:30:00Z,30.3288,-87.8293,56.96,1111122 
DISL,ioos:station:DISL:BSCA:1,2016-05-04T17:00:00Z,30.3288,-87.8293,49.1,1111122 
DISL,ioos:station:DISL:BSCA:1,2016-05-04T17:30:00Z,30.3288,-87.8293,54.42,1111122 
DISL,ioos:station:DISL:BSCA:1,2016-05-04T18:00:00Z,30.3288,-87.8293,48.53,1111122 
DISL,ioos:station:DISL:BSCA:1,2016-05-04T18:30:00Z,30.3288,-87.8293,49.0,1111122 
DISL,ioos:station:DISL:BSCA:1,2016-05-04T19:00:00Z,30.3288,-87.8293,56.11,1111122 
DISL,ioos:station:DISL:BSCA:1,2016-05-04T19:30:00Z,30.3288,-87.8293,56.48,1111122 
DISL,ioos:station:DISL:BSCA:1,2016-05-04T20:00:00Z,30.3288,-87.8293,48.85,1111122 
DISL,ioos:station:DISL:BSCA:1,2016-05-04T20:30:00Z,30.3288,-87.8293,46.41,1111122 
DISL,ioos:station:DISL:BSCA:1,2016-05-04T21:00:00Z,30.3288,-87.8293,44.21,1111122 
DISL,ioos:station:DISL:BSCA:1,2016-05-04T21:30:00Z,30.3288,-87.8293,39.26,1111122 
DISL,ioos:station:DISL:BSCA:1,2016-05-04T22:00:00Z,30.3288,-87.8293,38.62,1111122 
DISL,ioos:station:DISL:BSCA:1,2016-05-04T22:30:00Z,30.3288,-87.8293,41.06,1111122 
DISL,ioos:station:DISL:BSCA:1,2016-05-04T23:00:00Z,30.3288,-87.8293,42.75,1111122 
DISL,ioos:station:DISL:BSCA:1,2016-05-04T23:30:00Z,30.3288,-87.8293,37.03,1111122 
DISL,ioos:station:DISL:BSCA:1,2016-05-05T00:00:00Z,30.3288,-87.8293,42.58,1111122 
DISL,ioos:station:DISL:BSCA:1,2016-05-05T00:30:00Z,30.3288,-87.8293,42.85,1111122 
DISL,ioos:station:DISL:BSCA:1,2016-05-05T01:00:00Z,30.3288,-87.8293,47.36,1111122 
DISL,ioos:station:DISL:BSCA:1,2016-05-05T01:30:00Z,30.3288,-87.8293,49.13,1111122 
DISL,ioos:station:DISL:BSCA:1,2016-05-05T02:00:00Z,30.3288,-87.8293,44.05,1111122 
DISL,ioos:station:DISL:BSCA:1,2016-05-05T02:30:00Z,30.3288,-87.8293,44.79,1111122 
DISL,ioos:station:DISL:BSCA:1,2016-05-05T03:00:00Z,30.3288,-87.8293,47.47,1111122 
DISL,ioos:station:DISL:BSCA:1,2016-05-05T03:30:00Z,30.3288,-87.8293,54.35,1111122 
DISL,ioos:station:DISL:BSCA:1,2016-05-05T04:00:00Z,30.3288,-87.8293,49.23,1111122 
DISL,ioos:station:DISL:BSCA:1,2016-05-05T04:30:00Z,30.3288,-87.8293,53.3,1111122 
DISL,ioos:station:DISL:BSCA:1,2016-05-05T05:00:00Z,30.3288,-87.8293,60.31,1111122 
DISL,ioos:station:DISL:BSCA:1,2016-05-05T05:30:00Z,30.3288,-87.8293,51.1,1111122 
DISL,ioos:station:DISL:BSCA:1,2016-05-05T06:00:00Z,30.3288,-87.8293,50.99,1111122 
DISL,ioos:station:DISL:BSCA:1,2016-05-05T06:30:00Z,30.3288,-87.8293,57.26,1111122 
DISL,ioos:station:DISL:BSCA:1,2016-05-05T07:00:00Z,30.3288,-87.8293,56.41,1111122 
DISL,ioos:station:DISL:BSCA:1,2016-05-05T07:30:00Z,30.3288,-87.8293,56.92,1111122 
DISL,ioos:station:DISL:BSCA:1,2016-05-05T08:00:00Z,30.3288,-87.8293,61.8,1111122 
DISL,ioos:station:DISL:BSCA:1,2016-05-05T08:30:00Z,30.3288,-87.8293,54.72,1111122 
DISL,ioos:station:DISL:BSCA:1,2016-05-05T09:00:00Z,30.3288,-87.8293,61.5,1111122 
DISL,ioos:station:DISL:BSCA:1,2016-05-05T09:30:00Z,30.3288,-87.8293,62.79,1111122 
DISL,ioos:station:DISL:BSCA:1,2016-05-05T10:00:00Z,30.3288,-87.8293,64.59,1111122 
DISL,ioos:station:DISL:BSCA:1,2016-05-05T10:30:00Z,30.3288,-87.8293,68.76,1111122 
DISL,ioos:station:DISL:BSCA:1,2016-05-05T11:00:00Z,30.3288,-87.8293,72.42,1111122 
DISL,ioos:station:DISL:BSCA:1,2016-05-05T11:30:00Z,30.3288,-87.8293,69.43,1111122 
DISL,ioos:station:DISL:BSCA:1,2016-05-05T12:00:00Z,30.3288,-87.8293,73.47,1111122 
DISL,ioos:station:DISL:BSCA:1,2016-05-05T12:30:00Z,30.3288,-87.8293,73.53,1111122 
DISL,ioos:station:DISL:BSCA:1,2016-05-05T13:00:00Z,30.3288,-87.8293,72.21,1111122 
DISL,ioos:station:DISL:BSCA:1,2016-05-05T13:30:00Z,30.3288,-87.8293,70.55,1111122 
DISL,ioos:station:DISL:BSCA:1,2016-05-05T14:00:00Z,30.3288,-87.8293,65.98,1111122 
DISL,ioos:station:DISL:BSCA:1,2016-05-05T14:30:00Z,30.3288,-87.8293,63.84,1111122 
DISL,ioos:station:DISL:BSCA:1,2016-05-05T15:00:00Z,30.3288,-87.8293,59.51,1111122 
DISL,ioos:station:DISL:BSCA:1,2016-05-05T15:30:00Z,30.3288,-87.8293,58.01,1111122 
DISL,ioos:station:DISL:BSCA:1,2016-05-05T16:00:00Z,30.3288,-87.8293,51.43,1111122 
DISL,ioos:station:DISL:BSCA:1,2016-05-05T16:30:00Z,30.3288,-87.8293,54.89,1111122 
DISL,ioos:station:DISL:BSCA:1,2016-05-05T17:00:00Z,30.3288,-87.8293,44.28,1111122 
DISL,ioos:station:DISL:BSCA:1,2016-05-05T17:30:00Z,30.3288,-87.8293,33.47,1111122 
DISL,ioos:station:DISL:BSCA:1,2016-05-05T18:00:00Z,30.3288,-87.8293,44.28,1111122 
DISL,ioos:station:DISL:BSCA:1,2016-05-05T18:30:00Z,30.3288,-87.8293,44.11,1111122 
DISL,ioos:station:DISL:BSCA:1,2016-05-05T19:00:00Z,30.3288,-87.8293,44.18,1111122 
DISL,ioos:station:DISL:BSCA:1,2016-05-05T19:30:00Z,30.3288,-87.8293,48.21,1111122 
DISL,ioos:station:DISL:BSCA:1,2016-05-05T20:00:00Z,30.3288,-87.8293,35.5,1111122 
DISL,ioos:station:DISL:BSCA:1,2016-05-05T20:30:00Z,30.3288,-87.8293,38.82,1111122 
DISL,ioos:station:DISL:BSCA:1,2016-05-05T21:00:00Z,30.3288,-87.8293,41.06,1111122 
DISL,ioos:station:DISL:BSCA:1,2016-05-05T21:30:00Z,30.3288,-87.8293,42.99,1111122 
DISL,ioos:station:DISL:BSCA:1,2016-05-05T22:00:00Z,30.3288,-87.8293,38.14,1111122 
DISL,ioos:station:DISL:BSCA:1,2016-05-05T22:30:00Z,30.3288,-87.8293,39.09,1111122 
DISL,ioos:station:DISL:BSCA:1,2016-05-05T23:00:00Z,30.3288,-87.8293,45.56,1111122 
DISL,ioos:station:DISL:BSCA:1,2016-05-05T23:30:00Z,30.3288,-87.8293,35.03,1111122 
DISL,ioos:station:DISL:BSCA:1,2016-05-06T00:00:00Z,30.3288,-87.8293,42.01,1111122 
DISL,ioos:station:DISL:BSCA:1,2016-05-06T00:30:00Z,30.3288,-87.8293,39.23,1111122 
DISL,ioos:station:DISL:BSCA:1,2016-05-06T01:00:00Z,30.3288,-87.8293,39.23,1111122 
DISL,ioos:station:DISL:BSCA:1,2016-05-06T01:30:00Z,30.3288,-87.8293,43.37,1111122 
DISL,ioos:station:DISL:BSCA:1,2016-05-06T02:00:00Z,30.3288,-87.8293,39.04,1111122 
DISL,ioos:station:DISL:BSCA:1,2016-05-06T02:30:00Z,30.3288,-87.8293,44.05,1111122 
DISL,ioos:station:DISL:BSCA:1,2016-05-06T03:00:00Z,30.3288,-87.8293,46.56,1111122 
DISL,ioos:station:DISL:BSCA:1,2016-05-06T03:30:00Z,30.3288,-87.8293,44.66,1111122 
DISL,ioos:station:DISL:BSCA:1,2016-05-06T04:00:00Z,30.3288,-87.8293,47.03,1111122 
DISL,ioos:station:DISL:BSCA:1,2016-05-06T04:30:00Z,30.3288,-87.8293,54.08,1111122 
DISL,ioos:station:DISL:BSCA:1,2016-05-06T05:00:00Z,30.3288,-87.8293,50.59,1111122 
DISL,ioos:station:DISL:BSCA:1,2016-05-06T05:30:00Z,30.3288,-87.8293,46.32,1111122 
DISL,ioos:station:DISL:BSCA:1,2016-05-06T06:00:00Z,30.3288,-87.8293,48.86,1111122 
DISL,ioos:station:DISL:BSCA:1,2016-05-06T06:30:00Z,30.3288,-87.8293,49.88,1111122 
DISL,ioos:station:DISL:BSCA:1,2016-05-06T07:00:00Z,30.3288,-87.8293,54.96,1111122 
DISL,ioos:station:DISL:BSCA:1,2016-05-06T07:30:00Z,30.3288,-87.8293,49.07,1111122 
DISL,ioos:station:DISL:BSCA:1,2016-05-06T08:00:00Z,30.3288,-87.8293,54.6,1111122 
DISL,ioos:station:DISL:BSCA:1,2016-05-06T08:30:00Z,30.3288,-87.8293,55.11,1111122 
DISL,ioos:station:DISL:BSCA:1,2016-05-06T09:00:00Z,30.3288,-87.8293,62.0,1111122 
DISL,ioos:station:DISL:BSCA:1,2016-05-06T09:30:00Z,30.3288,-87.8293,60.58,1111122 
DISL,ioos:station:DISL:BSCA:1,2016-05-06T10:00:00Z,30.3288,-87.8293,66.34,1111122 
DISL,ioos:station:DISL:BSCA:1,2016-05-06T10:30:00Z,30.3288,-87.8293,67.49,1111122 
DISL,ioos:station:DISL:BSCA:1,2016-05-06T11:00:00Z,30.3288,-87.8293,68.88,1111122 
DISL,ioos:station:DISL:BSCA:1,2016-05-06T11:30:00Z,30.3288,-87.8293,75.87,1111122 
DISL,ioos:station:DISL:BSCA:1,2016-05-06T12:00:00Z,30.3288,-87.8293,71.24,1111122 
DISL,ioos:station:DISL:BSCA:1,2016-05-06T12:30:00Z,30.3288,-87.8293,70.38,1111122 
DISL,ioos:station:DISL:BSCA:1,2016-05-06T13:00:00Z,30.3288,-87.8293,64.61,1111122 
DISL,ioos:station:DISL:BSCA:1,2016-05-06T13:30:00Z,30.3288,-87.8293,60.41,1111122 
DISL,ioos:station:DISL:BSCA:1,2016-05-06T14:00:00Z,30.3288,-87.8293,58.2,1111122 
DISL,ioos:station:DISL:BSCA:1,2016-05-06T14:30:00Z,30.3288,-87.8293,58.61,1111122 
DISL,ioos:station:DISL:BSCA:1,2016-05-06T15:00:00Z,30.3288,-87.8293,50.6,1111122 
DISL,ioos:station:DISL:BSCA:1,2016-05-06T15:30:00Z,30.3288,-87.8293,48.9,1111122 
DISL,ioos:station:DISL:BSCA:1,2016-05-06T16:00:00Z,30.3288,-87.8293,52.22,1111122 
DISL,ioos:station:DISL:BSCA:1,2016-05-06T16:30:00Z,30.3288,-87.8293,50.46,1111122 
DISL,ioos:station:DISL:BSCA:1,2016-05-06T17:00:00Z,30.3288,-87.8293,48.86,1111122 
DISL,ioos:station:DISL:BSCA:1,2016-05-06T17:30:00Z,30.3288,-87.8293,65.4,1111122 
DISL,ioos:station:DISL:BSCA:1,2016-05-06T18:00:00Z,30.3288,-87.8293,63.91,1111122 
DISL,ioos:station:DISL:BSCA:1,2016-05-06T18:30:00Z,30.3288,-87.8293,58.83,1111122 
DISL,ioos:station:DISL:BSCA:1,2016-05-06T19:00:00Z,30.3288,-87.8293,54.96,1111122 
DISL,ioos:station:DISL:BSCA:1,2016-05-06T19:30:00Z,30.3288,-87.8293,52.83,1111122 
DISL,ioos:station:DISL:BSCA:1,2016-05-06T20:00:00Z,30.3288,-87.8293,55.0,1111122 
DISL,ioos:station:DISL:BSCA:1,2016-05-06T20:30:00Z,30.3288,-87.8293,47.27,1111122 
DISL,ioos:station:DISL:BSCA:1,2016-05-06T21:00:00Z,30.3288,-87.8293,38.66,1111122 
DISL,ioos:station:DISL:BSCA:1,2016-05-06T21:30:00Z,30.3288,-87.8293,40.92,1111122 
DISL,ioos:station:DISL:BSCA:1,2016-05-06T22:00:00Z,30.3288,-87.8293,44.99,1111122 
DISL,ioos:station:DISL:BSCA:1,2016-05-06T22:30:00Z,30.3288,-87.8293,61.69,1111122 
DISL,ioos:station:DISL:BSCA:1,2016-05-06T23:00:00Z,30.3288,-87.8293,58.64,1111122 
DISL,ioos:station:DISL:BSCA:1,2016-05-06T23:30:00Z,30.3288,-87.8293,62.53,1111122 
DISL,ioos:station:DISL:BSCA:1,2016-05-07T00:00:00Z,30.3288,-87.8293,57.35,1111122 
DISL,ioos:station:DISL:BSCA:1,2016-05-07T00:30:00Z,30.3288,-87.8293,57.8,1111122 